Location: Les Coudrans
(46.1056°N, 1.1158°W)
Time: 14:50:24
(UTC+00:00)

Cosmos 1503 Rocket - Pass Details

Date: 03 March 2021
Orbit: 753 x 790 km, 74.0° (Epoch: 17 April)

Event Time Altitude Azimuth Distance (km) Brightness Sun altitude
Rises 18:28:34 0° 342° (NNW) 3,232 7.4 -6.8°
Reaches altitude 10° 18:31:03 10° 349° (N) 2,297 6.6 -7.2°
Maximum altitude 18:36:02 44° 62° (ENE) 1,040 4.3 -8.1°
Drops below altitude 10° 18:40:56 10° 134° (SE) 2,273 6.0 -9.0°
Sets 18:43:24 0° 141° (SE) 3,193 6.8 -9.4°
